Powrót do katalogu

COSMOS 2473

AktywnyNawigacjaGEO
NORAD 37806·PAYLOAD·🇷🇺 Russia

Wystrzelony Sep 20, 2011 z Baikonur Cosmodrome

Loading…

TLE

ŚwieżeSource: Space-Track

Epoka: Sep 14, 2026, 18:08 UTC

1 37806U 11048A   26257.75603419  .00000112  00000-0  00000-0 0  9999
2 37806   5.7994  72.3262 0006340 136.4909 250.9093  1.00292171  8376

Śledź COSMOS 2473 w czasie rzeczywistym z AllMySat

Download on the App Store